Regional Weather Roundup
Issued by NWS

Home | Current Version | Previous Version | Text Only | Print | Product List | Glossary Off
Versions: 1 2 3 4 5 6 7 8 9 10 11 12 13 14 15 16 17 18 19 20 21 22 23 24 25 26 27

000
ASUS43 KDMX 240607
RWRIA

WEATHER ROUNDUP FOR IOWA
NATIONAL WEATHER SERVICE DES MOINES IA
100 AM CDT FRI OCT 24 2014

NOTE: "FAIR" INDICATES FEW OR NO CLOUDS BELOW 12,000 FEET WITH NO
SIGNIFICANT WEATHER AND/OR OBSTRUCTIONS TO VISIBILITY.

* - THESE STATIONS ARE NOT NWS STATIONS...THUS NOT UNDER NWS
QUALITY CONTROL.  THEY ALSO DO NOT REPORT WEATHER SUCH
AS PRECIPITATION OR FOG.

IAZ001>003-012>014-020>022-031>034-043>046-240700-
   NORTHWEST IOWA

CITY           SKY/WX    TMP DP  RH WIND       PRES   REMARKS
CARROLL *      PTCLDY    45  43  93 S5        29.99F
CHEROKEE *     MOCLDY    48  46  93 S5        29.96F
DENISON *      CLEAR     52  46  82 CALM      29.98S
LE MARS *      CLEAR     55  48  76 S8        29.94F
ORANGE CITY *  CLEAR     54  45  71 S7        29.94F
SHELDON *      CLEAR     52  46  82 S6        29.94S
SIOUX CITY     CLEAR     50  47  89 E6        29.95F
6HR MIN TEMP:  49; 6HR MAX TEMP:  59;

SPENCER        MOCLDY    49  42  77 SE5       29.97S
6HR MIN TEMP:  45; 6HR MAX TEMP:  53;

STORM LAKE *   CLEAR     50  43  76 S9        29.99S
$$

IAZ055>058-069>071-079>083-090>094-240700-
   SOUTHWEST IOWA

CITY           SKY/WX    TMP DP  RH WIND       PRES   REMARKS
ATLANTIC *     PTCLDY    46  45  93 CALM      30.01F
AUDUBON *      CLEAR     45  37  76 CALM      30.02F
CLARINDA *     CLOUDY    48  48 100 S3        30.05F
COUNCIL BLFS * CLEAR     55  54  94 S8        29.99F
CRESTON *      FOG       54  54 100 SW9       30.04F VSB 1/2
HARLAN  *      CLEAR     46  46 100 SW3       30.04F
LAMONI         FOG       57  57 100 SW9       30.05S VSB 1/4
6HR MIN TEMP:  55; 6HR MAX TEMP:  63;

RED OAK *      PTCLDY    50  48  93 CALM      30.03S
SHENANDOAH *     N/A     54  54 100 S5        30.03F
$$

IAZ047>049-059>061-072>074-084-240700-
   CENTRAL IOWA

CITY           SKY/WX    TMP DP  RH WIND       PRES   REMARKS
AMES           FOG       47  46  97 CALM      30.02F VSB 1/4
6HR MIN TEMP:  46; 6HR MAX TEMP:  54;

ANKENY *       FOG       50  50 100 CALM      30.03S VSB 0
CHARITON *     FOG       57  57 100 SW7       30.05S VSB 0
DES MOINES     FOG       53  52  96 S8        30.03F VSB 1/4
6HR MIN TEMP:  53; 6HR MAX TEMP:  63;

GRINNELL*      CLEAR     53  52  97 S5        30.04F FOG
KNOXVILLE *    FOG       54  54 100 S9        30.03S VSB 0
MARSHALLTOWN   FOG       42  42 100 E3        30.02F VSB 1/4
6HR MIN TEMP:  42; 6HR MAX TEMP:  58;

PELLA *        FOG       52  52  99 S5        30.05F VSB 1/4
PERRY *          N/A     46  45  93 S6        30.01F
$$

IAZ004>006-015-016-023>025-035-036-240700-
   NORTH CENTRAL IOWA

CITY           SKY/WX    TMP DP  RH WIND       PRES   REMARKS
ALGONA *       CLEAR     50  45  81 S8        29.99F
CLARION *      CLEAR     50  50 100 S7        30.01S FOG
ESTHERVILLE    MOCLDY    44  40  85 S8        29.98R
6HR MIN TEMP:  43; 6HR MAX TEMP:  56;

FORT DODGE *   PTCLDY    48  43  81 CALM      30.01R
FOREST CITY *  CLEAR     37  37 100 CALM      30.01S FOG
IOWA FALLS *     N/A     50  50 100 S6        30.03S FOG
$$

IAZ007>011-017>019-026>030-037>042-050>054-066-240700-
   NORTHEAST IOWA

CITY           SKY/WX    TMP DP  RH WIND       PRES   REMARKS
CEDAR RAPIDS   FOG       42  42 100 S3        30.04S VSB 1/4
6HR MIN TEMP:  41; 6HR MAX TEMP:  52;

CHARLES CITY * FOG       46  46 100 SE5       30.03S VSB 0
CLINTON *        N/A     46  45  93 CALM      30.07R VSB 3/4
DECORAH *      FOG       50  50 100 CALM      30.03R VSB<1/4
DUBUQUE        CLOUDY    51  50  96 W5        30.05S
6HR MIN TEMP:  50; 6HR MAX TEMP:  52;

MONTICELLO *   FOG       43  43 100 CALM      30.04S VSB 0
OELWEIN *      FOG       48  48 100 S7        30.04S VSB 0
WATERLOO       FOG       48  48 100 CALM      30.03S VSB 1/4
6HR MIN TEMP:  42; 6HR MAX TEMP:  50;

$$

IAZ064-065-067-068-078-240700-
   EAST CENTRAL IOWA

CITY           SKY/WX    TMP DP  RH WIND       PRES   REMARKS
DAVENPORT      CLEAR     45  42  89 SW3       30.05S
6HR MIN TEMP:  45; 6HR MAX TEMP:  57;

IOWA CITY      FOG       45  45 100 CALM      30.06S VSB 3/4
6HR MIN TEMP:  44; 6HR MAX TEMP:  53;

MT. PLEASANT * FOG       47  47 100 S3        30.06S VSB 3/4
MUSCATINE *    FOG       43  41  93 CALM      30.06R VSB 1/4
QUAD CITIES    PTCLDY    47  45  93 CALM      30.05S
6HR MIN TEMP:  46; 6HR MAX TEMP:  59;

$$

IAZ062-063-075>077-085>089-095>099-240700-
   SOUTHEAST IOWA

CITY           SKY/WX    TMP DP  RH WIND       PRES   REMARKS
BURLINGTON     PTCLDY    52  50  93 SW3       30.05S
6HR MIN TEMP:  52; 6HR MAX TEMP:  57;

FAIRFIELD *    MOCLDY    46  45  93 W5        30.05F
FORT MADISON * PTCLDY    54  52  94 SW3       30.06S
KEOKUK *       MOCLDY    54  52  94 SW8       30.05S
OSKALOOSA *    FOG       44  44  98 SW3       30.05S VSB 1/4
CENTERVILLE *  FOG       54  54 100 SW3       30.07S VSB 1/2
OTTUMWA        FOG       47  45  93 CALM      30.05S VSB 1/4
6HR MIN TEMP:  42; 6HR MAX TEMP:  56;

WASHINGTON *   FOG       46  46 100 W6        30.05S VSB 0
$$

ABBREVIATIONS USED IN REMARKS
   TC - TEMPERATURES IN CELSIUS
  WCI - WIND CHILL INDEX
   HX - HEAT INDEX
  VSB - VISIBILITY
$$




USA.gov is the U.S. government's official web portal to all federal, state and local government web resources and services.